SCP
0 -0 -0 0 0 0 0 0 0 0 0 0 -0 -0 0 0 -0 -0 -0 -0 -0 -0 -0 -0 -0 -0 -1 -1 -1 -1 -0 -0
0 -0 -0 0 0 0 0 0 0 0 0 0 0 -0 -0 -0 -0 -0 -0 -0 -0 -0 -0 -0 -0 -0 -1 -1 -1 -0 -0 -0
0 0 0 0 0 0 0 0 0 0 -0 0 0 0 -0 -0 -0 -0 -0 -0 -0 -0 -0 -0 -0 -0 -0 -0 -0 -0 -0 -0
0 0 0 0 0 0 0 0 0 -0 -0 0 0 -0 -0 -0 -0 -0 -0 -0 -0 -0 -0 -0 -0 -0 -0 -0 -0 -0 -0 -0
0 0 0 0 0 0 0 0 0 -0 -0 0 0 -0 -0 -0 -0 -0 -0 -0 -0 -0 -0 -0 -0 -0 -0 -0 -0 -0 -0 -0
0 0 0 0 0 0 0 0 0 0 -0 -0 0 -0 -0 -0 -0 -0 -0 -0 -0 -0 -0 -0 -0 -0 -0 -0 -0 -0 -0 -0
0 0 0 0 0 0 0 0 0 0 0 0 -0 -0 -0 -0 -0 -0 -0 -0 -0 -0 -0 -0 -0 -0 -0 -0 -0 -0 -0 -0
0 0 0 0 0 0 0 0 0 0 -0 -0 -0 -0 -0 -0 -0 -0 -0 -0 -0 -0 -0 -0 -0 -0 -0 -0 -0 -0 -0 -0
0 0 0 0 0 0 0 -0 0 -0 -0 -0 -0 -0 -0 -0 -0 -0 -0 -0 -0 -0 -0 -0 -0 -0 0 0 -0 0 0 0
0 0 0 0 0 0 0 0 -0 0 0 -0 -0 -0 -0 0 -0 0 0 0 -0 -0 -0 -0 0 0 0 0 0 0 0 0
0 0 0 0 0 0 0 0 -0 0 0 -0 -0 -0 -0 0 0 0 0 0 0 -0 0 -0 0 0 0 0 0 0 0 0
0 0 0 0 0 0 0 0 0 0 0 -0 -0 -0 -0 0 -0 -0 -0 -0 -0 0 0 -0 0 0 0 0 0 0 0 0
0 0 0 0 0 0 0 0 0 0 0 0 0 0 -0 -0 -0 -0 0 0 0 0 0 0 0 0 0 0 -0 -0 -0 0
0 0 0 0 0 0 0 0 0 0 0 0 0 0 -0 -0 -0 -0 0 0 0 0 0 0 0 0 0 0 -0 -0 -0 -0
0 0 0 0 0 0 0 0 0 0 1 1 1 0 0 0 -0 -0 0 0 0 0 0 0 0 0 0 0 0 0 0 -0
0 0 0 0 0 1 1 1 0 1 1 1 0 0 0 0 0 0 0 0 0 0 0 0 0 0 0 0 0 0 0 0
0 0 0 0 0 1 1 1 1 1 1 1 0 0 0 0 0 0 0 0 0 0 0 0 0 0 0 0 0 0 0 0
0 0 0 0 0 1 1 1 1 1 0 0 0 0 0 0 0 0 0 0 0 0 0 0 0 0 0 0 0 0 0 0
0 0 0 0 0 1 0 0 1 1 0 0 0 0 0 0 0 0 0 0 0 0 0 0 0 1 1 1 0 0 0 0
0 0 0 0 0 0 1 1 0 0 0 0 0 0 0 0 0 0 0 0 0 0 0 0 0 1 0 0 1 0 0 0
Wind_Speed_500mb
3 5 10 2 3 6 4 7 4 5 6 5 8 8 32 39 46 63 63 58 57 52 46 41 37 31 29 30 33 34 33 31
7 18 12 5 10 14 0 10 4 5 9 10 9 13 14 44 52 58 58 55 55 53 48 42 35 29 25 27 31 32 31 30
8 13 11 10 15 12 1 0 6 6 7 8 12 7 17 41 51 53 57 51 53 53 48 43 37 30 25 26 30 31 30 29
23 15 9 15 21 18 16 14 7 8 13 9 11 8 28 39 45 49 55 52 53 52 49 44 38 30 25 27 30 32 31 31
6 10 12 14 8 11 9 15 18 13 13 12 19 17 34 39 44 51 53 50 52 52 50 44 38 31 26 29 29 32 33 33
12 14 8 2 1 3 10 16 9 16 13 13 37 33 42 42 45 47 50 44 51 51 52 48 41 33 28 30 32 32 31 32
17 18 7 7 4 1 13 19 14 22 9 17 46 46 48 48 43 47 49 45 43 48 51 52 45 37 30 31 33 33 32 31
11 13 9 3 3 15 7 15 20 23 17 36 52 53 54 54 51 53 54 53 46 48 54 53 48 42 36 34 36 35 34 34
12 18 3 2 14 10 17 22 32 57 46 53 57 56 51 47 45 47 51 51 51 52 56 55 51 46 40 36 39 36 35 34
28 12 9 8 13 22 12 8 14 37 52 64 64 57 52 49 46 45 44 52 49 51 54 55 52 47 41 37 38 39 37 35
37 30 29 23 24 11 28 27 13 44 46 62 59 51 45 41 43 45 45 45 50 49 52 53 49 48 44 40 37 40 38 36
15 27 23 19 18 8 5 19 28 53 49 56 59 51 47 46 46 46 44 42 45 47 48 48 49 47 45 42 38 40 41 38
34 31 17 28 14 13 12 28 40 40 42 44 44 43 43 43 42 42 42 39 39 41 42 42 44 44 45 43 40 39 42 40
8 30 12 26 23 8 20 32 36 39 39 36 30 29 31 38 40 40 39 40 39 36 34 34 37 37 34 39 39 40 41 44
5 18 14 17 16 14 25 30 36 39 35 32 33 36 39 39 40 38 38 39 38 38 31 32 33 32 33 33 35 38 40 42
7 12 16 19 17 21 25 33 31 32 32 29 25 29 31 35 40 43 43 43 43 42 37 36 31 31 33 32 33 36 39 41
5 9 12 22 21 16 17 30 34 31 30 26 30 28 24 28 35 38 37 36 40 45 44 45 42 35 37 31 26 26 31 34
7 3 11 17 19 12 13 18 26 31 32 30 33 30 27 28 29 27 30 35 38 45 46 48 48 39 31 37 36 34 33 41
5 15 11 27 12 16 8 14 19 20 24 28 36 37 34 30 26 25 28 31 37 41 48 49 50 47 40 34 36 40 45 48
26 16 10 8 17 15 16 19 23 32 33 35 43 41 34 29 25 21 22 25 32 39 44 45 47 50 48 46 47 46 42 39
Wind_Direction_500mb
235 208 230 175 354 312 130 135 48 96 69 57 35 8 142 157 160 171 173 172 171 170 168 167 165 166 170 174 176 175 172 170
230 229 252 211 103 38 188 204 200 77 62 69 44 131 141 157 160 172 173 175 174 173 171 171 171 171 175 178 178 176 173 170
226 241 267 249 252 260 268 45 121 122 120 81 109 118 146 157 165 173 175 173 178 175 175 175 174 174 177 176 174 175 174 169
222 223 252 272 254 242 223 225 139 148 141 123 139 143 153 165 169 173 177 176 179 178 179 178 176 174 173 173 171 168 166 164
216 246 255 259 260 231 246 257 244 149 169 147 172 175 165 176 172 175 177 178 181 180 180 180 180 176 172 172 170 165 164 165
216 213 227 169 250 238 283 289 221 181 194 174 177 179 168 171 166 171 178 176 181 180 181 182 181 178 174 174 172 170 170 168
210 182 187 149 326 100 298 250 189 173 166 177 169 178 163 161 162 174 177 179 179 178 182 183 184 181 179 180 180 178 175 175
207 196 177 141 238 329 264 190 178 157 152 159 167 175 167 169 172 180 182 183 181 182 184 185 186 185 185 185 186 186 182 180
213 212 229 250 303 320 306 198 194 174 160 162 167 171 174 178 182 182 183 184 188 187 188 189 191 191 190 191 192 191 190 188
229 220 264 274 314 314 269 212 232 186 168 168 171 176 180 181 182 182 185 188 190 191 192 194 198 197 200 199 198 196 196 195
238 250 261 279 277 272 267 268 238 187 172 169 172 176 179 182 185 188 188 190 194 196 197 201 203 205 206 207 206 203 202 202
251 242 241 239 260 207 254 170 158 173 173 172 175 178 183 188 190 193 194 191 195 199 203 207 208 212 214 214 214 212 209 209
246 235 228 217 239 223 168 166 151 162 170 165 172 181 190 194 198 199 203 205 201 201 208 209 214 218 220 222 221 219 217 216
190 195 211 190 200 148 166 161 159 161 161 156 170 184 197 205 207 211 213 217 214 212 212 214 217 220 223 225 226 225 223 222
165 185 159 210 182 157 164 172 163 164 155 158 178 197 210 216 224 227 231 228 227 225 219 222 221 219 221 223 226 228 229 231
182 148 170 184 127 150 169 172 165 160 155 159 165 196 213 221 229 230 228 234 233 229 222 218 221 218 217 221 226 230 235 236
168 181 177 191 139 153 170 172 167 165 158 154 179 188 200 212 221 226 229 227 227 224 221 215 220 214 211 208 214 222 234 239
97 4 200 164 133 123 157 183 184 170 161 168 177 174 187 206 212 212 213 214 211 214 214 212 217 221 219 221 223 230 241 243
194 117 76 145 144 171 125 132 161 180 175 179 180 181 187 194 203 209 205 211 211 210 216 217 217 217 225 227 234 241 244 252
151 172 164 232 187 210 182 173 193 196 197 187 192 195 196 197 207 213 211 207 208 211 217 220 221 224 228 236 241 247 250 252
Wind_Speed_850mb
3 5 10 2 3 6 4 7 4 5 6 5 8 8 32 39 46 63 63 58 57 52 46 41 37 31 29 30 33 34 33 31
7 18 12 5 10 14 0 10 4 5 9 10 9 13 14 44 52 58 58 55 55 53 48 42 35 29 25 27 31 32 31 30
8 13 11 10 15 12 1 0 6 6 7 8 12 7 17 41 51 53 57 51 53 53 48 43 37 30 25 26 30 31 30 29
23 15 9 15 21 18 16 14 7 8 13 9 11 8 28 39 45 49 55 52 53 52 49 44 38 30 25 27 30 32 31 31
6 10 12 14 8 11 9 15 18 13 13 12 19 17 34 39 44 51 53 50 52 52 50 44 38 31 26 29 29 32 33 33
12 14 8 2 1 3 10 16 9 16 13 13 37 33 42 42 45 47 50 44 51 51 52 48 41 33 28 30 32 32 31 32
17 18 7 7 4 1 13 19 14 22 9 17 46 46 48 48 43 47 49 45 43 48 51 52 45 37 30 31 33 33 32 31
11 13 9 3 3 15 7 15 20 23 17 36 52 53 54 54 51 53 54 53 46 48 54 53 48 42 36 34 36 35 34 34
12 18 3 2 14 10 17 22 32 57 46 53 57 56 51 47 45 47 51 51 51 52 56 55 51 46 40 36 39 36 35 34
28 12 9 8 13 22 12 8 14 37 52 64 64 57 52 49 46 45 44 52 49 51 54 55 52 47 41 37 38 39 37 35
37 30 29 23 24 11 28 27 13 44 46 62 59 51 45 41 43 45 45 45 50 49 52 53 49 48 44 40 37 40 38 36
15 27 23 19 18 8 5 19 28 53 49 56 59 51 47 46 46 46 44 42 45 47 48 48 49 47 45 42 38 40 41 38
34 31 17 28 14 13 12 28 40 40 42 44 44 43 43 43 42 42 42 39 39 41 42 42 44 44 45 43 40 39 42 40
8 30 12 26 23 8 20 32 36 39 39 36 30 29 31 38 40 40 39 40 39 36 34 34 37 37 34 39 39 40 41 44
5 18 14 17 16 14 25 30 36 39 35 32 33 36 39 39 40 38 38 39 38 38 31 32 33 32 33 33 35 38 40 42
7 12 16 19 17 21 25 33 31 32 32 29 25 29 31 35 40 43 43 43 43 42 37 36 31 31 33 32 33 36 39 41
5 9 12 22 21 16 17 30 34 31 30 26 30 28 24 28 35 38 37 36 40 45 44 45 42 35 37 31 26 26 31 34
7 3 11 17 19 12 13 18 26 31 32 30 33 30 27 28 29 27 30 35 38 45 46 48 48 39 31 37 36 34 33 41
5 15 11 27 12 16 8 14 19 20 24 28 36 37 34 30 26 25 28 31 37 41 48 49 50 47 40 34 36 40 45 48
26 16 10 8 17 15 16 19 23 32 33 35 43 41 34 29 25 21 22 25 32 39 44 45 47 50 48 46 47 46 42 39
Wind_Direction_850mb
235 208 230 175 354 312 130 135 48 96 69 57 35 8 142 157 160 171 173 172 171 170 168 167 165 166 170 174 176 175 172 170
230 229 252 211 103 38 188 204 200 77 62 69 44 131 141 157 160 172 173 175 174 173 171 171 171 171 175 178 178 176 173 170
226 241 267 249 252 260 268 45 121 122 120 81 109 118 146 157 165 173 175 173 178 175 175 175 174 174 177 176 174 175 174 169
222 223 252 272 254 242 223 225 139 148 141 123 139 143 153 165 169 173 177 176 179 178 179 178 176 174 173 173 171 168 166 164
216 246 255 259 260 231 246 257 244 149 169 147 172 175 165 176 172 175 177 178 181 180 180 180 180 176 172 172 170 165 164 165
216 213 227 169 250 238 283 289 221 181 194 174 177 179 168 171 166 171 178 176 181 180 181 182 181 178 174 174 172 170 170 168
210 182 187 149 326 100 298 250 189 173 166 177 169 178 163 161 162 174 177 179 179 178 182 183 184 181 179 180 180 178 175 175
207 196 177 141 238 329 264 190 178 157 152 159 167 175 167 169 172 180 182 183 181 182 184 185 186 185 185 185 186 186 182 180
213 212 229 250 303 320 306 198 194 174 160 162 167 171 174 178 182 182 183 184 188 187 188 189 191 191 190 191 192 191 190 188
229 220 264 274 314 314 269 212 232 186 168 168 171 176 180 181 182 182 185 188 190 191 192 194 198 197 200 199 198 196 196 195
238 250 261 279 277 272 267 268 238 187 172 169 172 176 179 182 185 188 188 190 194 196 197 201 203 205 206 207 206 203 202 202
251 242 241 239 260 207 254 170 158 173 173 172 175 178 183 188 190 193 194 191 195 199 203 207 208 212 214 214 214 212 209 209
246 235 228 217 239 223 168 166 151 162 170 165 172 181 190 194 198 199 203 205 201 201 208 209 214 218 220 222 221 219 217 216
190 195 211 190 200 148 166 161 159 161 161 156 170 184 197 205 207 211 213 217 214 212 212 214 217 220 223 225 226 225 223 222
165 185 159 210 182 157 164 172 163 164 155 158 178 197 210 216 224 227 231 228 227 225 219 222 221 219 221 223 226 228 229 231
182 148 170 184 127 150 169 172 165 160 155 159 165 196 213 221 229 230 228 234 233 229 222 218 221 218 217 221 226 230 235 236
168 181 177 191 139 153 170 172 167 165 158 154 179 188 200 212 221 226 229 227 227 224 221 215 220 214 211 208 214 222 234 239
97 4 200 164 133 123 157 183 184 170 161 168 177 174 187 206 212 212 213 214 211 214 214 212 217 221 219 221 223 230 241 243
194 117 76 145 144 171 125 132 161 180 175 179 180 181 187 194 203 209 205 211 211 210 216 217 217 217 225 227 234 241 244 252
151 172 164 232 187 210 182 173 193 196 197 187 192 195 196 197 207 213 211 207 208 211 217 220 221 224 228 236 241 247 250 252